Location: Hamburg
(53.5554°N, 9.9941°E)
Time: 00:01:10
(UTC+01:00)

ISS - Pass Details

Date: 07 January 2018
Orbit: 402 x 407 km, 51.6° (Epoch: 20 January)

Event Time Altitude Azimuth Distance (km) Brightness Sun altitude
Exits shadow 05:56:30 51° 129° (SE) 520 -3.1 -22.2°
Drops below altitude 10° 05:59:12 10° 98° (E) 1,470 0.2 -21.8°
Sets 06:01:18 0° 95° (E) 2,331 1.6 -21.5°
